User: anonymous   Login
Location: Unspecified
(0.0000°N, 0.0000°E)
Time: 16:12:15
(UTC+00:00)
Language:

SEEDS - Orbit

View from above orbital plane
View from above orbital plane
View from above satellite
View from above satellite

Ground track
Ground track

The orbit data is extracted from the following two-line orbital elements,

1 32791U 08021J   20292.74194662 +.00000332 +00000-0 +38735-4 0  9995
2 32791 097.5504 281.5092 0014551 055.5185 304.7406 14.91134532676754
Epoch (UTC): 18 October 2020 17:48:24
Eccentricity: 0.0014551
inclination: 97.5504°
perigee height: 584 km
apogee height: 604 km
right ascension of ascending node: 281.5092°
argument of perigee: 55.5185°
revolutions per day: 14.91134532
mean anomaly at epoch: 304.7406°
orbit number at epoch: 67675

The dashed part of the orbit path shows where the satellite is in the earth's shadow,  

DLR